Mobile, AL

1:30 AM CDT on September 27, 2016 (GMT -0500)
Mobile Regional

Weather History for KMOB - July, 2012

Change the Weather History Date:

Monday, July 9, 2012

  Actual Average Record
Temperature  
Mean Temperature 82 °F 82 °F  
Max Temperature 89 °F 91 °F 100 °F (1881)
Min Temperature 74 °F 73 °F 66 °F (1988)
Cooling Degree Days 17 17  
Month to date cooling degree days 158 151  
Year to date cooling degree days 1315 1040  
Since 1 June cooling degree days 609 595  
Growing Degree Days 31 (Base 50)    
Moisture  
Dew Point 73 °F    
Average Humidity 75    
Maximum Humidity 94    
Minimum Humidity 55    
Precipitation  
Precipitation T in 0.24 in 3.17 in (1970)
Month to date precipitation 0.85 2.08  
Year to date precipitation 40.86 35.03  
Sea Level Pressure  
Sea Level Pressure 30.01 in    
Wind  
Wind Speed 2 mph (SW)    
Max Wind Speed 17 mph    
Max Gust Speed 21 mph    
Visibility 9 miles    
Events Rain , Thunderstorm    
T = Trace of Precipitation, MM = Missing Value Source: NWS Daily Summary

Daily Weather History Graph

Daily Weather History Graph

Search for Another Location

Airport or City:

Trip Planner

Search our weather history database for the weather conditions in past years. The results will help you decide how hot, cold, wet, or windy it might be!

Date:

Astronomy

Jul. 09, 2012 Rise Set
Actual Time 5:57 AM CDT 7:58 PM CDT
Civil Twilight 5:30 AM CDT 8:26 PM CDT
Nautical Twilight 4:57 AM CDT 8:59 PM CDT
Astronomical Twilight 4:21 AM CDT 9:34 PM CDT
Moon 11:46 PM CDT (7/9) 11:54 AM CDT (7/9)
Length of Visible Light 14h 55m
Length of Day
14h 01m
Waning Gibbous, 63% of the Moon is Illuminated
Jul 9
Waning Gibbous
Jul 10
Last Quarter
Jul 18
New
Jul 26
First Quarter
Aug 1
Full

Hourly Weather History & Observations

Time (CDT) Temp. Heat Index Dew Point Humidity Pressure Visibility Wind Dir Wind Speed Gust Speed Precip Events Conditions
12:56 AM 75.9 °F - 73.0 °F 91% 30.04 in 10.0 mi West 3.5 mph - N/A Thunderstorm Thunderstorm
1:56 AM 75.9 °F - 73.0 °F 91% 30.03 in 10.0 mi Calm Calm - 0.00 in Thunderstorm Thunderstorm
2:56 AM 75.0 °F - 72.0 °F 90% 30.02 in 10.0 mi South 4.6 mph - N/A   Scattered Clouds
3:56 AM 75.0 °F - 72.0 °F 90% 30.01 in 10.0 mi Calm Calm - N/A   Scattered Clouds
4:56 AM 73.9 °F - 72.0 °F 93% 30.02 in 10.0 mi Calm Calm - N/A   Mostly Cloudy
5:56 AM 73.9 °F - 72.0 °F 93% 30.02 in 7.0 mi Calm Calm - N/A   Scattered Clouds
6:56 AM 78.1 °F - 72.0 °F 81% 30.04 in 10.0 mi Calm Calm - N/A   Mostly Cloudy
7:56 AM 81.0 °F 84.9 °F 71.1 °F 72% 30.04 in 10.0 mi Calm Calm - N/A   Mostly Cloudy
8:56 AM 82.0 °F 86.7 °F 72.0 °F 71% 30.04 in 10.0 mi Variable 3.5 mph - N/A   Mostly Cloudy
9:56 AM 84.0 °F 90.2 °F 73.0 °F 69% 30.03 in 10.0 mi Calm Calm - N/A   Mostly Cloudy
10:18 AM 82.4 °F 88.2 °F 73.4 °F 74% 30.04 in 10.0 mi West 4.6 mph - N/A   Mostly Cloudy
10:33 AM 84.2 °F 90.9 °F 73.4 °F 70% 30.04 in 10.0 mi NW 3.5 mph - N/A   Mostly Cloudy
10:56 AM 84.9 °F 90.7 °F 72.0 °F 65% 30.02 in 10.0 mi Calm Calm - N/A   Mostly Cloudy
11:56 AM 87.1 °F 92.0 °F 70.0 °F 57% 30.01 in 10.0 mi Calm Calm - N/A   Mostly Cloudy
12:07 PM 86.0 °F 91.8 °F 71.6 °F 62% 30.02 in 10.0 mi WSW 3.5 mph - N/A Thunderstorm Thunderstorm
12:15 PM 86.0 °F 91.8 °F 71.6 °F 62% 30.01 in 10.0 mi SW 3.5 mph - N/A Thunderstorm Thunderstorm
12:26 PM 84.2 °F 90.9 °F 73.4 °F 70% 30.01 in 7.0 mi SSE 10.4 mph - 0.00 in Rain , Thunderstorm Light Thunderstorms and Rain
12:56 PM 82.9 °F 90.2 °F 75.0 °F 77% 30.00 in 8.0 mi South 9.2 mph - 0.00 in Thunderstorm Thunderstorm
1:06 PM 82.4 °F 89.5 °F 75.2 °F 79% 30.00 in 8.0 mi South 10.4 mph 20.7 mph N/A Thunderstorm Thunderstorm
1:15 PM 82.4 °F 88.2 °F 73.4 °F 74% 30.01 in 8.0 mi SW 13.8 mph - N/A Thunderstorm Thunderstorm
1:30 PM 82.4 °F 88.2 °F 73.4 °F 74% 30.02 in 8.0 mi SW 13.8 mph - N/A Thunderstorm Thunderstorm
1:56 PM 81.0 °F 85.8 °F 73.0 °F 77% 30.02 in 7.0 mi SW 8.1 mph - N/A Thunderstorm Thunderstorm
2:56 PM 78.1 °F - 71.1 °F 79% 30.02 in 7.0 mi West 3.5 mph - N/A   Mostly Cloudy
3:04 PM 78.8 °F - 71.6 °F 78% 30.03 in 7.0 mi NW 3.5 mph - N/A Thunderstorm Thunderstorm
3:37 PM 78.8 °F - 71.6 °F 78% 30.02 in 7.0 mi Calm Calm - N/A   Mostly Cloudy
3:56 PM 75.9 °F - 72.0 °F 87% 30.00 in 7.0 mi NE 4.6 mph - N/A   Mostly Cloudy
4:56 PM 77.0 °F - 73.0 °F 88% 29.99 in 7.0 mi Calm Calm - 0.00 in   Mostly Cloudy
5:56 PM 79.0 °F - 73.0 °F 82% 29.98 in 10.0 mi Calm Calm - N/A   Overcast
6:56 PM 79.0 °F - 73.0 °F 82% 29.97 in 10.0 mi Calm Calm - N/A   Overcast
7:56 PM 78.1 °F - 72.0 °F 81% 29.98 in 10.0 mi Calm Calm - N/A   Overcast
8:56 PM 78.1 °F - 73.0 °F 84% 29.99 in 10.0 mi SE 3.5 mph - N/A   Overcast
9:56 PM 77.0 °F - 73.9 °F 90% 30.00 in 10.0 mi SSE 5.8 mph - N/A   Mostly Cloudy
10:56 PM 77.0 °F - 73.9 °F 90% 30.00 in 10.0 mi South 3.5 mph - N/A   Overcast
11:56 PM 77.0 °F - 73.0 °F 88% 29.99 in 10.0 mi South 4.6 mph - N/A   Overcast